Retour au catalogue

COSMOS 886 DEB

ActifLEO
NORAD 9656·DEBRIS·🇷🇺 Russia

Lancé Dec 27, 1976 depuis Baikonur Cosmodrome

Loading…

Prochains Passages (prochaines 24 heures)

TLE

FraisSource: Space-Track

Époque: Sep 13, 2026, 04:12 UTC

1 09656U 76126N   26256.17510901  .00000342  00000-0  28676-3 0  9994
2 09656  65.8195 289.2349 0855209  38.8673 327.0769 12.91042777293573

Suivez COSMOS 886 DEB en temps réel avec AllMySat

Download on the App Store